Location: *
(31.2983°S, 151.4094°E)
Time: 03:59:59
(UTC+00:00)

NOSS 3-2 (C) - Pass Details

Date: 25 August 2019
Orbit: 827 x 1385 km, 63.4° (Epoch: 12 August)

Event Time Altitude Azimuth Distance (km) Brightness Sun altitude
Rises 19:46:17 0° 214° (SW) 3,681 6.1 -7.7°
Reaches altitude 10° 19:49:00 10° 217° (SW) 2,656 5.4 -7.1°
Maximum altitude 19:54:57 59° 295° (WNW) 1,003 3.4 -5.8°
Drops below altitude 10° 20:00:24 10° 13° (NNE) 2,435 5.9 -4.7°
Sets 20:02:48 0° 17° (NNE) 3,351 6.7 -4.2°
